NOAA 16 DEB, 41143

Orbit data source: Space-Track

NOAA 16 DEB, 41143 is space debris in SSO originally from a launch on Thu, 21 Sep 2000 UTC launched from the Air Force Western Test Range (AFWTR). Debris objects in space refer to the collection of defunct objects orbiting the Earth. Examples of debris include non-operational satellites, rocket bodies, and fragments generated from explosions, collisions, or faulty payload assembly.

Loading next visibility...
Identifier
41143, 2000-055CA
Orbit
SSO
Country
Flag of USUS
Related business
Manufacturer
Unknown
Mission
Spacecraft
Bus & Motor
Unknown
Mass
Unknown
Launch date (UTC)
2000-09-21 (25 years ago)
Launch vehicle
Unknown
Launch site
Air Force Western Test Range (AFWTR)
Object type
Payload
Rocket body
Debris
Shape & HBR
Unknown shape, 0.1 m
Radar Cross Section
Small (<0.1 m²)

Expand to show TLE details & history
Last TLE update: 2 days ago

TLE from 2 days ago
0 NOAA 16 DEB
1 41143U 00055CA  25285.87373607  .00004698  00000-0  28398-2 0  9995
2 41143  98.8780 250.5453 0089135  98.5909 262.5370 14.05012592502208
Epoch: 2025-10-12T20:58Z
TLE epoch observation values (Epoch: 2025-10-12T20:58:10.796Z)
Latitude
-0.00006°
Longitude
-85.68429°
Altitude
888.344 km
Speed
7.403 km/s
True Right ascension
16h 42m 10s
True Declination
0° 00' 00"
Sunlit
Object was in daylight at epoch
Visualization orbit readout
Latitude
Unknown
Longitude
Unknown
Altitude
Unknown
Speed
Unknown
Apparent Right ascension
Unknown
Apparent Declination
Unknown
Sunlit
N/A
Visualization observer readout
Local Sidereal Time
09:35:40
Azimuth
Unknown
Elevation
Unknown
Doppler factor
Unknown
Orbital elements
Apogee altitude
938.314 km
Perigee altitude
809.036 km
Semi-major axis
7,251.812 km
Eccentricity
0.00891
Inclination
98.878°
RAAN
250.5453°
Arg. of periapsis
98.5909°
True anomaly
261.52576°
Mean anomaly
262.537°
Eccentric anomaly
262.03123°
Mean motion
3.51458 °/min
Orbital period
102.43 mins
BSTAR
0.0028398
Loading maneuver chart data...
Computing Atmospheric mass density...
Loading historical data...
Loading historical data...
Loading historical data...
Loading historical data...
Loading historical data...
Loading historical data...
Loading historical data...

Documentation

Showing up to 5 results
|